Location: Clarks Summit,Pa.
(41.5000°N, 75.6000°W)
Time: 05:25:46
(UTC-04:00)

X-37B - Visible Passes

Search period start: 04 October 2022 00:00
Search period end: 14 October 2022 00:00
Orbit: 329 x 342 km, 45.0° (Epoch: 29 September)

Date Brightness Start Highest point End Pass type
(mag) Time Alt. Az. Time Alt. Az. Time Alt. Az.
04 Oct 2.3 05:03:15 30° E 05:03:15 30° E 05:04:56 10° E visible
05 Oct 1.0 05:23:08 51° SE 05:23:08 51° SE 05:25:27 10° ESE visible
06 Oct 1.4 05:43:09 30° SSW 05:43:09 30° SSW 05:45:30 10° SSE visible
07 Oct 2.6 06:03:17 12° SW 06:03:17 12° SW 06:04:25 10° S visible
13 Oct 2.8 19:41:11 10° S 19:41:42 12° SSE 19:41:42 12° SSE visible
